{"data":{"norad_id":61586,"intl_designator":"2024-187N","name":"STARLINK-11360 [DTC]","alt_names":[],"object_type":"PAYLOAD","status":"ACTIVE","operator":null,"country":"US","launch_date":"2024-10-18","launch_site_code":"AFETR","launch_vehicle":null,"mission":null,"orbit_class":"UNKNOWN","rcs_meters":null,"size_class":null,"mass_kg":null,"dimensions":null,"purposes":["comms"],"wikipedia_slug":null,"has_3d_model":false,"image_url":null,"decayed_at":null,"tle_current":{"epoch":"2026-05-24T16:12:27.516672Z","epoch_age_seconds":113619,"freshness":"FRESH","line1":"1 61586U 24187N   26144.67531848  .00000704  00000+0  10673-4 0  9998","line2":"2 61586  53.1603 281.7447 0001006  57.1178 302.9937 15.69705062 92730","mean_motion":15.69705062,"eccentricity":0.0001006,"inclination_deg":53.1603,"raan_deg":281.7447,"arg_perigee_deg":57.1178,"mean_anomaly_deg":302.9937,"bstar":1.0673e-5,"rev_number":9273,"period_min":91.736978803219,"perigee_km":359.06305060782,"apogee_km":360.4187116375,"semimajor_km":6737.8778811227,"source":"CELESTRAK","updated_at":"2026-05-25T13:38:19.404335Z"}}}